Zurück zum Katalog

MSAT M1

AktivKommunikationGEO
NORAD 23846·PAYLOAD·🇨🇦 Canada

Gestartet Apr 20, 1996 von Guiana Space Centre

Loading…

TLE

AktuellSource: Space-Track

Epoche: Sep 14, 2026, 13:52 UTC

1 23846U 96022A   26257.57839436 -.00000134  00000-0  00000-0 0  9998
2 23846  12.5747  27.6897 0023995 199.1294 352.0261  0.98647116110961

Verfolge MSAT M1 in Echtzeit mit AllMySat

Download on the App Store